Regional Weather Roundup
Issued by NWS Newport/Morehead, NC

Current Version | Previous Version | Text Only | Print | Product List | Glossary Off
Versions: 1 2 3 4 5 6 7 8 9 10 11 12 13 14 15 16 17 18 19 20 21 22 23 24 25 26 27 28 29 30 31 32 33 34 35 36 37 38 39 40 41 42 43 44 45 46 47 48 49 50
000 ASUS42 KMHX 061325 RWRMHX WEATHER ROUNDUP FOR EASTERN NORTH CAROLINA NATIONAL WEATHER SERVICE NEWPORT/MOREHEAD CITY NC 800 AM EST SAT FEB 06 2016 NOTE: "FAIR" INDICATES FEW OR NO CLOUDS BELOW 12,000 FEET WITH NO SIGNIFICANT WEATHER AND/OR OBSTRUCTIONS TO VISIBILITY NCZ015>017-031-032-045>047-102-103-061400- NORTH COAST CITY SKY/WX TMP DP RH WIND PRES REMARKS EDENTON CLOUDY 31 29 92 CALM 30.49R ELIZABETH CITY CLOUDY 31 27 85 W3 30.48R KITTY HAWK MOSUNNY 39 28 64 CALM 30.45R MANTEO CLOUDY 40 31 68 N7 30.46R $$ NCZ045>047-081-094-103-104-061400- CENTRAL COAST CITY SKY/WX TMP DP RH WIND PRES REMARKS FRISCO PTSUNNY 43 30 60 VRB7 30.42R SWANQUARTER N/A 37 N/A N/A N3 30.41S $$ NCZ095-097-098-100-101-061400- SOUTHERN COAST CITY SKY/WX TMP DP RH WIND PRES REMARKS BEAUFORT SUNNY 37 29 72 NE10 30.42F CEDAR ISLAND N/A 41 N/A N/A NW20 30.47S JACKSONVILLE PTCLDY 35 29 78 N10 30.42F PINEY ISLAND SUNNY N/A N/A N/A N10 30.44R WILMINGTON MOCLDY 35 30 82 N6 30.42S $$ NCZ011>013-027>030-043-044-078>080-089-090>093-098-061400- COASTAL PLAIN CITY SKY/WX TMP DP RH WIND PRES REMARKS AHOSKIE CLOUDY 28 26 94 CALM 30.48F CLINTON PTCLDY 33 28 82 NE5 30.45S ELIZABETHTOWN PTCLDY 33 30 87 CALM 30.44R GOLDSBORO PTCLDY 32 32 100 CALM 30.44F GREENVILLE PTCLDY 30 30 100 CALM 30.47S HAVELOCK CLOUDY 38 29 70 N12 30.44F KENANSVILLE N/A 32 30 91 CALM 30.46S KINSTON NOT AVBL NEW BERN PTCLDY 34 30 85 N7 30.46F RICHLANDS PTCLDY 34 25 69 N6 30.44S ROCKY MOUNT PTCLDY 29 28 96 CALM 30.48S WASHINGTON PTCLDY 30 28 91 CALM 30.47F WHITEVILLE CLOUDY 35 29 79 NE3 30.43R $$ AMZ130-135-150-152-154-156-158-170-250-252-270-ANZ085-086-088-633-658-670-061400- MARINE OBSERVATIONS STATION/POSITION TIME TEMP WIND PRES WAVE SWELL AIR SEA DIR/SP/G HT/PER HT/PER (UTC) (F) (DEG/KT/KT) (MB) (FT/S) (FT/S) CHESAPEAKE LIGHT 1300 40 30/ 6/ 7 1032.0 64 E VA BEACH 1250 43 54 20/ 8/ 10 1030.6 6/10 7/10 DUCK 1300 41 45 30/ 5/ 8 1031.1 2 E DUCK 1311 44 N/A 4/10 2/11 OREGON INLET 1300 42 45 340/ 8/ 10 1030.9 13E OREGON INLT 1300 46 N/A 6/11 3/11 HATTERAS CG 1300 43 53 340/ 16/ 20 1030.0 DIAMOND BUOY 1250 47 73 350/ 17/ 23 1029.2 6/11 5/11 CAPE LOOKOUT NOT AVBL BEAUFORT LAB 1300 39 51 20/ 11/ 13 1028.8 30 SE NEW RVR IN 1308 47 65 1027.9 30 SE NEW RVR IN 1225 65 N/A 4/ 4 2/11 27 SE WRIGHTSVLE 1308 48 69 360/ 17/ 25 1028.5 5 SE WRIGHTSVLE 1208 44 54 40/ 17/ 23 1029.3 225 S CAPE HAT 1250 61 69 60/ 14/ 19 N/A 10/11 8/11 41 SE CHARLESTON 1250 52 66 30/ 21/ 29 1026.4 6/10 3/10 $$

USA.gov is the U.S. government's official web portal to all federal, state and local government web resources and services.